Time,TemperatureF,DewpointF,PressureIn,WindDirection,WindDirectionDegrees,WindSpeedMPH,WindSpeedGustMPH,Humidity,HourlyPrecipIn,Conditions,Clouds,dailyrainin,SoftwareType,DateUTC
2013-01-28 00:00:00,30.0,12.7,30.52,NNW,340,3.0,6.0,48,0.00,,,0.00,meteohub,2013-01-28 05:00:00,
2013-01-28 00:01:00,30.0,12.7,30.52,NNW,335,3.0,6.0,48,0.00,,,0.00,meteohub,2013-01-28 05:01:00,
2013-01-28 00:03:00,30.0,13.1,30.52,NW,315,4.0,6.0,49,0.00,,,0.00,meteohub,2013-01-28 05:03:00,
2013-01-28 00:08:00,30.0,14.0,30.52,NW,316,2.0,6.0,51,0.00,,,0.00,meteohub,2013-01-28 05:08:00,
2013-01-28 00:13:00,29.8,14.7,30.52,NNW,337,4.0,6.0,53,0.00,,,0.00,meteohub,2013-01-28 05:13:00,
2013-01-28 00:18:00,29.8,14.4,30.52,NNW,330,3.0,6.0,52,0.00,,,0.00,meteohub,2013-01-28 05:18:00,
2013-01-28 00:23:00,29.8,15.3,30.52,NNE,20,1.0,6.0,54,0.00,,,0.00,meteohub,2013-01-28 05:23:00,
2013-01-28 00:28:00,29.8,14.7,30.52,NNW,340,4.0,6.0,53,0.00,,,0.00,meteohub,2013-01-28 05:28:00,
2013-01-28 00:33:00,29.8,14.4,30.52,NNW,345,3.0,8.0,52,0.00,,,0.00,meteohub,2013-01-28 05:33:00,
2013-01-28 00:38:00,30.0,14.9,30.52,NW,314,4.0,8.0,53,0.00,,,0.00,meteohub,2013-01-28 05:38:00,
2013-01-28 00:43:00,29.8,12.9,30.52,NW,319,4.0,8.0,49,0.00,,,0.00,meteohub,2013-01-28 05:43:00,
2013-01-28 00:48:00,30.0,13.6,30.52,NNW,338,2.0,8.0,50,0.00,,,0.00,meteohub,2013-01-28 05:48:00,
2013-01-28 00:53:00,29.8,12.9,30.51,NNW,334,6.0,8.0,49,0.00,,,0.00,meteohub,2013-01-28 05:53:00,
2013-01-28 00:58:00,29.8,14.4,30.52,North,349,7.0,10.0,52,0.00,,,0.00,meteohub,2013-01-28 05:58:00,
2013-01-28 01:03:00,29.8,12.9,30.52,NW,309,2.0,10.0,49,0.00,,,0.00,meteohub,2013-01-28 06:03:00,
2013-01-28 01:08:00,29.8,14.4,30.51,NW,321,4.0,11.0,52,0.00,,,0.00,meteohub,2013-01-28 06:08:00,
2013-01-28 01:13:00,29.7,13.3,30.52,NNW,343,7.0,11.0,50,0.00,,,0.00,meteohub,2013-01-28 06:13:00,
2013-01-28 01:18:00,29.7,12.9,30.52,NNW,333,5.0,11.0,49,0.00,,,0.00,meteohub,2013-01-28 06:18:00,
2013-01-28 01:23:00,29.7,12.9,30.52,NNW,343,5.0,9.0,49,0.00,,,0.00,meteohub,2013-01-28 06:23:00,
2013-01-28 01:28:00,29.5,13.1,30.52,NNE,23,6.0,8.0,50,0.00,,,0.00,meteohub,2013-01-28 06:28:00,
2013-01-28 01:33:00,29.5,11.7,30.52,NNE,13,6.0,8.0,47,0.00,,,0.00,meteohub,2013-01-28 06:33:00,
2013-01-28 01:39:00,29.5,11.7,30.52,North,349,5.0,8.0,47,0.00,,,0.00,meteohub,2013-01-28 06:39:00,
2013-01-28 01:44:00,29.5,12.7,30.52,North,5,5.0,9.0,49,0.00,,,0.00,meteohub,2013-01-28 06:44:00,
2013-01-28 01:49:00,29.5,13.6,30.52,NNW,332,5.0,9.0,51,0.00,,,0.00,meteohub,2013-01-28 06:49:00,
2013-01-28 01:54:00,29.3,12.9,30.52,NNW,340,3.0,9.0,50,0.00,,,0.00,meteohub,2013-01-28 06:54:00,
2013-01-28 01:59:00,29.3,12.9,30.51,NNW,336,3.0,8.0,50,0.00,,,0.00,meteohub,2013-01-28 06:59:00,
2013-01-28 02:04:00,29.3,13.5,30.51,NNW,343,2.0,7.0,51,0.00,,,0.00,meteohub,2013-01-28 07:04:00,
2013-01-28 02:09:00,29.1,13.6,30.52,NW,326,3.0,6.0,52,0.00,,,0.00,meteohub,2013-01-28 07:09:00,
2013-01-28 02:14:00,29.3,13.8,30.52,NNW,328,2.0,6.0,52,0.00,,,0.00,meteohub,2013-01-28 07:14:00,
2013-01-28 02:19:00,29.1,14.2,30.52,NNW,327,2.0,6.0,53,0.00,,,0.00,meteohub,2013-01-28 07:19:00,
2013-01-28 02:24:00,29.1,13.6,30.52,NNW,327,0.0,6.0,52,0.00,,,0.00,meteohub,2013-01-28 07:24:00,
2013-01-28 02:29:00,28.9,13.5,30.52,NW,313,0.0,6.0,52,0.00,,,0.00,meteohub,2013-01-28 07:29:00,
2013-01-28 02:34:00,28.9,13.5,30.51,NNW,330,2.0,5.0,52,0.00,,,0.00,meteohub,2013-01-28 07:34:00,
2013-01-28 02:39:00,28.9,13.1,30.51,NNW,333,1.0,4.0,51,0.00,,,0.00,meteohub,2013-01-28 07:39:00,
2013-01-28 02:44:00,29.1,12.7,30.51,NW,316,4.0,5.0,50,0.00,,,0.00,meteohub,2013-01-28 07:44:00,
2013-01-28 02:49:00,29.1,13.6,30.51,North,4,2.0,5.0,52,0.00,,,0.00,meteohub,2013-01-28 07:49:00,
2013-01-28 02:54:00,28.9,13.5,30.50,NNW,345,3.0,4.0,52,0.00,,,0.00,meteohub,2013-01-28 07:54:00,
2013-01-28 02:59:00,28.9,14.0,30.50,NNW,329,3.0,4.0,53,0.00,,,0.00,meteohub,2013-01-28 07:59:00,
2013-01-28 03:04:00,28.9,13.5,30.50,NW,325,3.0,4.0,52,0.00,,,0.00,meteohub,2013-01-28 08:04:00,
2013-01-28 03:09:00,28.8,13.3,30.50,North,351,3.0,4.0,52,0.00,,,0.00,meteohub,2013-01-28 08:09:00,
2013-01-28 03:14:00,28.6,13.1,30.49,North,352,2.0,4.0,52,0.00,,,0.00,meteohub,2013-01-28 08:14:00,
2013-01-28 03:19:00,28.4,13.8,30.50,NNW,345,0.0,4.0,54,0.00,,,0.00,meteohub,2013-01-28 08:19:00,
2013-01-28 03:24:00,28.0,14.0,30.50,NNE,19,0.0,3.0,55,0.00,,,0.00,meteohub,2013-01-28 08:24:00,
2013-01-28 03:29:00,27.9,13.8,30.49,NNE,22,0.0,3.0,55,0.00,,,0.00,meteohub,2013-01-28 08:29:00,
2013-01-28 03:34:00,27.7,13.3,30.49,NE,34,0.0,1.0,54,0.00,,,0.00,meteohub,2013-01-28 08:34:00,
2013-01-28 03:39:00,27.3,13.3,30.50,NE,34,0.0,1.0,55,0.00,,,0.00,meteohub,2013-01-28 08:39:00,
2013-01-28 03:44:00,27.1,13.1,30.49,NE,34,0.0,1.0,55,0.00,,,0.00,meteohub,2013-01-28 08:44:00,
2013-01-28 03:49:00,27.0,12.6,30.49,NE,34,0.0,1.0,54,0.00,,,0.00,meteohub,2013-01-28 08:49:00,
2013-01-28 03:54:00,27.0,12.0,30.49,NE,34,0.0,1.0,53,0.00,,,0.00,meteohub,2013-01-28 08:54:00,
2013-01-28 03:59:00,27.0,11.7,30.49,SE,145,1.0,0.0,52,0.00,,,0.00,meteohub,2013-01-28 08:59:00,
2013-01-28 04:04:00,27.0,11.7,30.49,SSE,156,0.0,1.0,52,0.00,,,0.00,meteohub,2013-01-28 09:04:00,
2013-01-28 04:09:00,26.8,12.0,30.49,SSE,166,1.0,1.0,53,0.00,,,0.00,meteohub,2013-01-28 09:09:00,
2013-01-28 04:14:00,26.6,11.8,30.49,SSE,166,0.0,1.0,53,0.00,,,0.00,meteohub,2013-01-28 09:14:00,
2013-01-28 04:19:00,26.4,11.7,30.49,SSE,153,1.0,1.0,53,0.00,,,0.00,meteohub,2013-01-28 09:19:00,
2013-01-28 04:24:00,26.1,11.7,30.49,SSE,156,1.0,1.0,54,0.00,,,0.00,meteohub,2013-01-28 09:24:00,
2013-01-28 04:29:00,25.7,12.2,30.48,SSE,153,0.0,2.0,56,0.00,,,0.00,meteohub,2013-01-28 09:29:00,
2013-01-28 04:34:00,25.3,12.2,30.48,SSE,150,1.0,2.0,57,0.00,,,0.00,meteohub,2013-01-28 09:34:00,
2013-01-28 04:39:00,25.2,12.4,30.48,SSE,155,1.0,2.0,58,0.00,,,0.00,meteohub,2013-01-28 09:39:00,
2013-01-28 04:44:00,25.3,12.6,30.48,South,176,0.0,2.0,58,0.00,,,0.00,meteohub,2013-01-28 09:44:00,
2013-01-28 04:49:00,24.3,11.3,30.48,SSE,159,1.0,2.0,57,0.00,,,0.00,meteohub,2013-01-28 09:49:00,
2013-01-28 04:54:00,24.3,11.3,30.47,SSE,159,1.0,2.0,57,0.00,,,0.00,meteohub,2013-01-28 09:54:00,
2013-01-28 04:59:00,24.3,11.3,30.48,North,-999,-999.0,2.0,57,0.00,,,0.00,meteohub,2013-01-28 09:59:00,
2013-01-28 07:52:00,27.3,13.3,30.46,North,-999,-999.0,-999.0,55,-99.99,,,0.00,meteohub,2013-01-28 12:52:00,
2013-01-28 07:57:00,27.7,13.6,30.46,North,-999,-999.0,-999.0,55,-99.99,,,0.00,meteohub,2013-01-28 12:57:00,
2013-01-28 08:02:00,27.7,13.6,30.46,SSE,158,3.0,-999.0,55,0.00,,,0.00,meteohub,2013-01-28 13:02:00,
2013-01-28 08:07:00,27.7,14.0,30.47,SSE,148,2.0,4.0,56,0.00,,,0.00,meteohub,2013-01-28 13:07:00,
2013-01-28 08:12:00,27.9,13.8,30.46,SE,145,2.0,4.0,55,0.00,,,0.00,meteohub,2013-01-28 13:12:00,
2013-01-28 08:17:00,28.0,13.5,30.46,SSE,157,3.0,5.0,54,0.00,,,0.00,meteohub,2013-01-28 13:17:00,
2013-01-28 08:22:00,28.2,13.3,30.46,SE,131,2.0,5.0,53,0.00,,,0.00,meteohub,2013-01-28 13:22:00,
2013-01-28 08:27:00,28.6,13.6,30.46,SE,131,2.0,5.0,53,0.00,,,0.00,meteohub,2013-01-28 13:27:00,
2013-01-28 08:32:00,28.8,13.8,30.45,SE,146,1.0,5.0,53,0.00,,,0.00,meteohub,2013-01-28 13:32:00,
2013-01-28 08:37:00,28.8,14.2,30.45,SE,135,3.0,5.0,54,0.00,,,0.00,meteohub,2013-01-28 13:37:00,
2013-01-28 08:42:00,28.8,14.7,30.45,SE,131,3.0,5.0,55,0.00,,,0.00,meteohub,2013-01-28 13:42:00,
2013-01-28 08:47:00,28.9,15.3,30.44,SE,142,1.0,5.0,56,0.00,,,0.00,meteohub,2013-01-28 13:47:00,
2013-01-28 08:52:00,28.9,15.6,30.44,SE,127,2.0,5.0,57,0.00,,,0.00,meteohub,2013-01-28 13:52:00,
2013-01-28 08:57:00,29.1,16.2,30.45,ESE,110,2.0,5.0,58,0.00,,,0.00,meteohub,2013-01-28 13:57:00,
2013-01-28 09:02:00,29.5,16.5,30.45,SSE,156,0.0,5.0,58,0.00,,,0.00,meteohub,2013-01-28 14:02:00,
2013-01-28 09:07:00,29.7,16.7,30.45,SE,143,0.0,4.0,58,0.00,,,0.00,meteohub,2013-01-28 14:07:00,
2013-01-28 09:12:00,29.8,17.2,30.45,SE,133,0.0,4.0,59,0.00,,,0.00,meteohub,2013-01-28 14:12:00,
2013-01-28 09:17:00,29.8,16.9,30.45,SE,137,3.0,3.0,58,0.00,,,0.00,meteohub,2013-01-28 14:17:00,
2013-01-28 09:22:00,30.0,17.1,30.44,SE,133,2.0,4.0,58,0.00,,,0.00,meteohub,2013-01-28 14:22:00,
2013-01-28 09:27:00,30.2,18.0,30.44,SE,146,0.0,4.0,60,0.00,,,0.00,meteohub,2013-01-28 14:27:00,
2013-01-28 09:32:00,30.4,18.1,30.44,ESE,104,1.0,4.0,60,0.00,,,0.00,meteohub,2013-01-28 14:32:00,
2013-01-28 09:37:00,30.4,18.1,30.44,SE,135,2.0,3.0,60,0.00,,,0.00,meteohub,2013-01-28 14:37:00,
2013-01-28 09:42:00,30.6,18.3,30.44,SSE,148,2.0,3.0,60,0.00,,,0.00,meteohub,2013-01-28 14:42:00,
2013-01-28 09:47:00,30.6,18.3,30.46,SE,142,2.0,5.0,60,0.00,,,0.00,meteohub,2013-01-28 14:47:00,
2013-01-28 09:52:00,30.6,18.7,30.45,SSE,153,2.0,6.0,61,0.00,,,0.00,meteohub,2013-01-28 14:52:00,
2013-01-28 09:57:00,30.7,17.2,30.45,SW,214,0.0,6.0,57,0.00,,,0.00,meteohub,2013-01-28 14:57:00,
2013-01-28 10:02:00,31.3,18.1,30.45,SE,127,1.0,7.0,58,0.00,,,0.00,meteohub,2013-01-28 15:02:00,
2013-01-28 10:07:00,31.3,17.8,30.44,ESE,108,1.0,7.0,57,0.00,,,0.00,meteohub,2013-01-28 15:07:00,
2013-01-28 10:12:00,31.6,17.2,30.45,SW,231,0.0,7.0,55,0.00,,,0.00,meteohub,2013-01-28 15:12:00,
2013-01-28 10:17:00,31.8,17.4,30.45,SW,231,0.0,4.0,55,0.00,,,0.00,meteohub,2013-01-28 15:17:00,
2013-01-28 10:22:00,32.0,17.6,30.44,ESE,120,4.0,5.0,55,0.00,,,0.00,meteohub,2013-01-28 15:22:00,
2013-01-28 10:27:00,32.2,17.4,30.44,SW,233,1.0,5.0,54,0.00,,,0.00,meteohub,2013-01-28 15:27:00,
2013-01-28 10:33:00,32.4,17.6,30.44,SSE,160,4.0,5.0,54,0.00,,,0.00,meteohub,2013-01-28 15:33:00,
2013-01-28 10:38:00,32.7,19.2,30.43,SE,129,1.0,8.0,57,0.00,,,0.00,meteohub,2013-01-28 15:38:00,
2013-01-28 10:43:00,32.9,19.8,30.43,SSW,205,0.0,8.0,58,0.00,,,0.00,meteohub,2013-01-28 15:43:00,
2013-01-28 10:48:00,33.1,19.9,30.43,SW,223,0.0,8.0,58,0.00,,,0.00,meteohub,2013-01-28 15:48:00,
2013-01-28 10:53:00,33.1,19.9,30.43,WSW,250,0.0,5.0,58,0.00,,,0.00,meteohub,2013-01-28 15:53:00,
2013-01-28 10:58:00,33.1,20.3,30.43,SW,225,1.0,5.0,59,0.00,,,0.00,meteohub,2013-01-28 15:58:00,
2013-01-28 11:03:00,33.3,20.8,30.43,SSW,205,0.0,5.0,60,0.00,,,0.00,meteohub,2013-01-28 16:03:00,
2013-01-28 11:08:00,33.4,21.0,30.42,WSW,250,0.0,4.0,60,0.00,,,0.00,meteohub,2013-01-28 16:08:00,
2013-01-28 11:13:00,33.3,21.2,30.42,West,270,0.0,4.0,61,0.00,,,0.00,meteohub,2013-01-28 16:13:00,
2013-01-28 11:18:00,33.1,23.0,30.41,SW,224,2.0,2.0,66,0.00,,,0.00,meteohub,2013-01-28 16:18:00,
2013-01-28 11:23:00,33.1,23.4,30.41,South,190,1.0,2.0,67,0.00,,,0.00,meteohub,2013-01-28 16:23:00,
2013-01-28 11:28:00,33.1,24.1,30.40,SW,233,1.0,4.0,69,0.00,,,0.00,meteohub,2013-01-28 16:28:00,
2013-01-28 11:33:00,33.1,24.4,30.39,SW,216,0.0,4.0,70,0.00,,,0.00,meteohub,2013-01-28 16:33:00,
2013-01-28 11:38:00,32.9,24.6,30.38,South,188,1.0,5.0,71,0.00,,,0.00,meteohub,2013-01-28 16:38:00,
2013-01-28 11:43:00,32.5,24.8,30.37,SSW,211,1.0,7.0,73,0.00,,,0.00,meteohub,2013-01-28 16:43:00,
2013-01-28 11:48:00,32.4,25.3,30.37,SW,226,0.0,7.0,75,0.00,,,0.00,meteohub,2013-01-28 16:48:00,
2013-01-28 11:53:00,32.4,25.9,30.37,SSE,155,0.0,7.0,77,0.00,,,0.00,meteohub,2013-01-28 16:53:00,
2013-01-28 11:58:00,32.2,26.1,30.37,SSE,157,1.0,6.0,78,0.00,,,0.00,meteohub,2013-01-28 16:58:00,
2013-01-28 12:03:00,32.2,26.4,30.36,South,174,0.0,6.0,79,0.00,,,0.00,meteohub,2013-01-28 17:03:00,
2013-01-28 12:08:00,32.2,26.8,30.36,ESE,107,0.0,3.0,80,0.00,,,0.00,meteohub,2013-01-28 17:08:00,
2013-01-28 12:13:00,32.2,27.0,30.36,South,180,0.0,3.0,81,0.00,,,0.00,meteohub,2013-01-28 17:13:00,
2013-01-28 12:18:00,32.2,27.7,30.36,SW,228,1.0,2.0,83,0.00,,,0.00,meteohub,2013-01-28 17:18:00,
2013-01-28 12:23:00,32.2,27.9,30.35,SE,138,0.0,3.0,84,0.00,,,0.00,meteohub,2013-01-28 17:23:00,
2013-01-28 12:28:00,32.2,28.2,30.35,SW,218,1.0,3.0,85,0.00,,,0.00,meteohub,2013-01-28 17:28:00,
2013-01-28 12:33:00,32.2,28.4,30.35,SSE,149,1.0,3.0,86,0.00,,,0.00,meteohub,2013-01-28 17:33:00,
2013-01-28 12:38:00,31.8,28.0,30.34,SSE,149,2.0,3.0,86,0.00,,,0.00,meteohub,2013-01-28 17:38:00,
2013-01-28 12:43:00,31.8,28.4,30.33,SSW,193,2.0,3.0,87,0.00,,,0.00,meteohub,2013-01-28 17:43:00,
2013-01-28 12:48:00,31.6,28.6,30.33,ESE,102,0.0,3.0,88,0.00,,,0.00,meteohub,2013-01-28 17:48:00,
2013-01-28 12:53:00,31.6,28.6,30.32,SSE,164,2.0,3.0,88,0.00,,,0.00,meteohub,2013-01-28 17:53:00,
2013-01-28 12:58:00,31.6,28.8,30.31,SSE,158,0.0,3.0,89,0.00,,,0.00,meteohub,2013-01-28 17:58:00,
2013-01-28 13:03:00,31.5,28.6,30.30,ESE,122,1.0,3.0,89,0.00,,,0.00,meteohub,2013-01-28 18:03:00,
2013-01-28 13:08:00,31.5,28.6,30.29,SE,137,1.0,4.0,89,0.00,,,0.00,meteohub,2013-01-28 18:08:00,
2013-01-28 13:13:00,31.3,28.8,30.28,East,91,1.0,4.0,90,0.00,,,0.00,meteohub,2013-01-28 18:13:00,
2013-01-28 13:18:00,31.3,28.8,30.29,ESE,111,2.0,5.0,90,0.00,,,0.00,meteohub,2013-01-28 18:18:00,
2013-01-28 13:23:00,31.3,28.9,30.27,SE,145,2.0,5.0,91,0.00,,,0.00,meteohub,2013-01-28 18:23:00,
2013-01-28 13:28:00,31.5,29.1,30.27,ESE,108,0.0,4.0,91,0.00,,,0.00,meteohub,2013-01-28 18:28:00,
2013-01-28 13:33:00,31.5,29.1,30.27,SSE,162,1.0,4.0,91,0.00,,,0.00,meteohub,2013-01-28 18:33:00,
2013-01-28 13:38:00,31.5,29.5,30.27,SE,129,1.0,4.0,92,0.00,,,0.00,meteohub,2013-01-28 18:38:00,
2013-01-28 13:43:00,31.5,29.5,30.27,East,97,4.0,4.0,92,0.00,,,0.00,meteohub,2013-01-28 18:43:00,
2013-01-28 13:48:00,31.5,29.5,30.27,ESE,110,0.0,4.0,92,0.00,,,0.00,meteohub,2013-01-28 18:48:00,
2013-01-28 13:53:00,31.3,29.3,30.27,ESE,123,1.0,4.0,92,0.00,,,0.00,meteohub,2013-01-28 18:53:00,
2013-01-28 13:58:00,31.3,29.3,30.26,SE,142,0.0,4.0,92,0.00,,,0.00,meteohub,2013-01-28 18:58:00,
2013-01-28 14:03:00,31.3,29.3,30.25,ESE,110,0.0,3.0,92,0.00,,,0.00,meteohub,2013-01-28 19:03:00,
2013-01-28 14:08:00,31.3,29.5,30.25,ESE,102,1.0,5.0,93,0.00,,,0.00,meteohub,2013-01-28 19:08:00,
2013-01-28 14:13:00,31.3,29.5,30.24,East,81,1.0,5.0,93,0.00,,,0.00,meteohub,2013-01-28 19:13:00,
2013-01-28 14:18:00,31.3,29.5,30.24,SE,127,0.0,5.0,93,0.00,,,0.00,meteohub,2013-01-28 19:18:00,
2013-01-28 14:23:00,31.3,29.5,30.24,SE,127,1.0,5.0,93,0.00,,,0.00,meteohub,2013-01-28 19:23:00,
2013-01-28 14:28:00,31.5,29.7,30.23,ESE,114,1.0,5.0,93,0.00,,,0.00,meteohub,2013-01-28 19:28:00,
2013-01-28 14:33:00,31.5,30.0,30.23,SE,141,2.0,5.0,94,0.00,,,0.00,meteohub,2013-01-28 19:33:00,
2013-01-28 14:38:00,31.6,30.2,30.23,SSE,149,0.0,4.0,94,0.00,,,0.00,meteohub,2013-01-28 19:38:00,
2013-01-28 14:43:00,31.8,30.4,30.23,SSE,152,1.0,2.0,94,0.00,,,0.00,meteohub,2013-01-28 19:43:00,
2013-01-28 14:48:00,31.8,30.4,30.22,SE,134,0.0,2.0,94,0.00,,,0.00,meteohub,2013-01-28 19:48:00,
2013-01-28 14:53:00,31.8,30.4,30.22,SE,138,3.0,3.0,94,0.00,,,0.00,meteohub,2013-01-28 19:53:00,
2013-01-28 14:58:00,32.0,30.6,30.21,ESE,118,1.0,3.0,94,0.00,,,0.00,meteohub,2013-01-28 19:58:00,
2013-01-28 15:03:00,32.0,30.6,30.21,South,170,2.0,4.0,94,0.00,,,0.00,meteohub,2013-01-28 20:03:00,
2013-01-28 15:08:00,32.2,30.6,30.20,SE,127,1.0,4.0,94,0.00,,,0.00,meteohub,2013-01-28 20:08:00,
2013-01-28 15:13:00,32.2,30.6,30.19,ESE,123,2.0,3.0,94,0.00,,,0.00,meteohub,2013-01-28 20:13:00,
2013-01-28 15:18:00,32.4,31.1,30.19,SE,141,1.0,5.0,95,0.00,,,0.00,meteohub,2013-01-28 20:18:00,
2013-01-28 15:24:00,32.4,31.1,30.19,ESE,120,2.0,5.0,95,0.00,,,0.00,meteohub,2013-01-28 20:24:00,
2013-01-28 15:29:00,32.5,31.3,30.19,SE,128,1.0,5.0,95,0.00,,,0.00,meteohub,2013-01-28 20:29:00,
2013-01-28 15:34:00,32.5,31.3,30.18,ESE,119,1.0,4.0,95,0.00,,,0.00,meteohub,2013-01-28 20:34:00,
2013-01-28 15:39:00,32.5,31.3,30.17,East,95,2.0,4.0,95,0.00,,,0.00,meteohub,2013-01-28 20:39:00,
2013-01-28 15:44:00,32.7,31.5,30.17,ESE,122,0.0,4.0,95,0.00,,,0.00,meteohub,2013-01-28 20:44:00,
2013-01-28 15:49:00,32.9,31.6,30.16,SE,146,1.0,4.0,95,0.00,,,0.00,meteohub,2013-01-28 20:49:00,
2013-01-28 15:54:00,33.1,31.8,30.16,SE,132,0.0,4.0,95,0.00,,,0.00,meteohub,2013-01-28 20:54:00,
2013-01-28 15:59:00,33.3,32.0,30.17,SSW,198,1.0,4.0,95,0.00,,,0.00,meteohub,2013-01-28 20:59:00,
2013-01-28 16:04:00,33.4,32.2,30.17,SE,132,1.0,4.0,95,0.00,,,0.00,meteohub,2013-01-28 21:04:00,
2013-01-28 16:09:00,33.4,32.2,30.17,SSE,152,1.0,3.0,95,0.00,,,0.00,meteohub,2013-01-28 21:09:00,
2013-01-28 16:14:00,33.6,32.5,30.17,SE,143,0.0,3.0,96,0.00,,,0.00,meteohub,2013-01-28 21:14:00,
2013-01-28 16:19:00,33.6,32.5,30.16,SSW,196,0.0,3.0,96,0.00,,,0.00,meteohub,2013-01-28 21:19:00,
2013-01-28 16:24:00,33.8,32.7,30.16,SSE,153,0.0,3.0,96,0.00,,,0.00,meteohub,2013-01-28 21:24:00,
2013-01-28 16:29:00,33.8,32.7,30.15,South,176,0.0,3.0,96,0.01,,,0.01,meteohub,2013-01-28 21:29:00,
2013-01-28 16:34:00,34.0,32.9,30.15,South,174,2.0,3.0,96,0.02,,,0.02,meteohub,2013-01-28 21:34:00,
2013-01-28 16:39:00,34.0,32.9,30.15,SSE,155,0.0,3.0,96,0.03,,,0.03,meteohub,2013-01-28 21:39:00,
2013-01-28 16:44:00,34.2,33.1,30.15,South,170,1.0,3.0,96,0.05,,,0.04,meteohub,2013-01-28 21:44:00,
2013-01-28 16:49:00,34.3,33.3,30.15,SSW,212,1.0,3.0,96,0.06,,,0.06,meteohub,2013-01-28 21:49:00,
2013-01-28 16:54:00,34.3,33.3,30.14,SE,134,1.0,3.0,96,0.07,,,0.07,meteohub,2013-01-28 21:54:00,
2013-01-28 16:59:00,34.5,33.4,30.13,South,174,3.0,5.0,96,0.08,,,0.08,meteohub,2013-01-28 21:59:00,
2013-01-28 17:04:00,34.7,33.6,30.12,SSE,148,3.0,5.0,96,0.09,,,0.09,meteohub,2013-01-28 22:04:00,
2013-01-28 17:09:00,34.7,33.6,30.12,SSE,152,0.0,5.0,96,0.10,,,0.10,meteohub,2013-01-28 22:09:00,
2013-01-28 17:14:00,34.9,33.8,30.12,WSW,249,1.0,5.0,96,0.10,,,0.10,meteohub,2013-01-28 22:14:00,
2013-01-28 17:19:00,34.9,33.8,30.12,SSE,155,0.0,5.0,96,0.11,,,0.11,meteohub,2013-01-28 22:19:00,
2013-01-28 17:24:00,34.9,33.8,30.13,WSW,237,0.0,5.0,96,0.11,,,0.11,meteohub,2013-01-28 22:24:00,
2013-01-28 17:29:00,35.1,34.0,30.12,South,176,0.0,5.0,96,0.10,,,0.11,meteohub,2013-01-28 22:29:00,
2013-01-28 17:34:00,35.1,34.3,30.12,South,174,2.0,3.0,97,0.10,,,0.12,meteohub,2013-01-28 22:34:00,
2013-01-28 17:39:00,35.1,34.3,30.13,West,269,0.0,3.0,97,0.08,,,0.12,meteohub,2013-01-28 22:39:00,
2013-01-28 17:44:00,35.2,34.5,30.12,SW,218,1.0,3.0,97,0.07,,,0.12,meteohub,2013-01-28 22:44:00,
2013-01-28 17:49:00,35.4,34.7,30.12,SW,225,0.0,3.0,97,0.06,,,0.12,meteohub,2013-01-28 22:49:00,
2013-01-28 17:54:00,35.4,34.7,30.12,SW,233,0.0,3.0,97,0.06,,,0.13,meteohub,2013-01-28 22:54:00,
2013-01-28 17:59:00,35.4,34.7,30.12,WSW,249,1.0,3.0,97,0.05,,,0.13,meteohub,2013-01-28 22:59:00,
2013-01-28 18:04:00,35.4,34.7,30.13,West,260,0.0,2.0,97,0.04,,,0.13,meteohub,2013-01-28 23:04:00,
2013-01-28 18:09:00,35.2,34.5,30.13,West,260,0.0,2.0,97,0.03,,,0.13,meteohub,2013-01-28 23:09:00,
2013-01-28 18:14:00,35.2,34.5,30.12,West,265,0.0,1.0,97,0.03,,,0.13,meteohub,2013-01-28 23:14:00,
2013-01-28 18:19:00,35.4,34.7,30.12,WSW,242,0.0,2.0,97,0.03,,,0.14,meteohub,2013-01-28 23:19:00,
2013-01-28 18:24:00,35.4,34.7,30.12,WSW,249,3.0,3.0,97,0.03,,,0.14,meteohub,2013-01-28 23:24:00,
2013-01-28 18:29:00,35.6,34.9,30.12,South,184,0.0,4.0,97,0.02,,,0.14,meteohub,2013-01-28 23:29:00,
2013-01-28 18:34:00,35.6,34.9,30.11,SW,219,0.0,5.0,97,0.02,,,0.14,meteohub,2013-01-28 23:34:00,
2013-01-28 18:40:00,35.6,34.9,30.11,West,270,0.0,5.0,97,0.02,,,0.14,meteohub,2013-01-28 23:40:00,
2013-01-28 18:45:00,35.4,34.7,30.11,West,278,2.0,5.0,97,0.03,,,0.15,meteohub,2013-01-28 23:45:00,
2013-01-28 18:50:00,35.4,34.7,30.10,SW,231,0.0,5.0,97,0.03,,,0.15,meteohub,2013-01-28 23:50:00,
2013-01-28 18:55:00,35.4,34.7,30.10,SW,215,1.0,3.0,97,0.03,,,0.16,meteohub,2013-01-28 23:55:00,
2013-01-28 19:00:00,35.4,34.7,30.10,West,263,0.0,4.0,97,0.03,,,0.16,meteohub,2013-01-29 00:00:00,
2013-01-28 19:05:00,35.6,34.9,30.10,SW,229,0.0,4.0,97,0.03,,,0.16,meteohub,2013-01-29 00:05:00,
2013-01-28 19:10:00,35.6,34.9,30.09,SW,219,0.0,4.0,97,0.04,,,0.01,meteohub,2013-01-29 00:10:00,
2013-01-28 19:15:00,35.6,34.9,30.09,West,262,0.0,4.0,97,0.04,,,0.01,meteohub,2013-01-29 00:15:00,
2013-01-28 19:20:00,35.4,34.7,30.09,WSW,240,0.0,4.0,97,0.03,,,0.01,meteohub,2013-01-29 00:20:00,
2013-01-28 19:25:00,35.4,34.7,30.09,SW,235,0.0,4.0,97,0.05,,,0.03,meteohub,2013-01-29 00:25:00,
2013-01-28 19:30:00,35.4,34.7,30.09,WSW,255,0.0,4.0,97,0.05,,,0.03,meteohub,2013-01-29 00:30:00,
2013-01-28 19:35:00,35.2,34.5,30.09,West,262,1.0,5.0,97,0.06,,,0.04,meteohub,2013-01-29 00:35:00,
2013-01-28 19:40:00,35.1,34.3,30.09,SW,215,0.0,5.0,97,0.05,,,0.04,meteohub,2013-01-29 00:40:00,
2013-01-28 19:45:00,35.1,34.3,30.09,SSW,200,0.0,5.0,97,0.05,,,0.04,meteohub,2013-01-29 00:45:00,
2013-01-28 19:50:00,35.1,34.3,30.09,WSW,252,0.0,5.0,97,0.06,,,0.05,meteohub,2013-01-29 00:50:00,
2013-01-28 19:55:00,35.1,34.3,30.09,WSW,243,0.0,6.0,97,0.05,,,0.05,meteohub,2013-01-29 00:55:00,
2013-01-28 20:00:00,34.9,34.2,30.09,West,270,3.0,6.0,97,0.05,,,0.05,meteohub,2013-01-29 01:00:00,
2013-01-28 20:05:00,34.9,34.2,30.09,SW,225,1.0,7.0,97,0.05,,,0.05,meteohub,2013-01-29 01:05:00,
2013-01-28 20:10:00,34.9,34.2,30.09,West,264,1.0,7.0,97,0.04,,,0.05,meteohub,2013-01-29 01:10:00,
2013-01-28 20:15:00,34.9,34.2,30.08,WSW,248,0.0,7.0,97,0.05,,,0.06,meteohub,2013-01-29 01:15:00,
2013-01-28 20:20:00,34.7,34.0,30.08,SW,231,2.0,7.0,97,0.04,,,0.06,meteohub,2013-01-29 01:20:00,
2013-01-28 20:25:00,34.5,33.8,30.08,SW,235,1.0,7.0,97,0.03,,,0.06,meteohub,2013-01-29 01:25:00,
2013-01-28 20:30:00,34.5,33.8,30.08,WSW,249,9.0,9.0,97,0.03,,,0.06,meteohub,2013-01-29 01:30:00,
2013-01-28 20:35:00,34.5,33.8,30.08,WNW,288,1.0,6.0,97,0.02,,,0.07,meteohub,2013-01-29 01:35:00,
2013-01-28 20:40:00,34.5,33.8,30.08,West,263,4.0,9.0,97,0.03,,,0.07,meteohub,2013-01-29 01:40:00,
2013-01-28 20:45:00,34.5,33.8,30.08,WSW,238,3.0,9.0,97,0.02,,,0.07,meteohub,2013-01-29 01:45:00,
2013-01-28 20:50:00,34.3,33.6,30.07,SSW,205,1.0,6.0,97,0.02,,,0.07,meteohub,2013-01-29 01:50:00,
2013-01-28 20:55:00,34.3,33.6,30.07,WSW,243,2.0,7.0,97,0.02,,,0.07,meteohub,2013-01-29 01:55:00,
2013-01-28 21:00:00,34.3,33.6,30.07,WSW,244,0.0,7.0,97,0.02,,,0.07,meteohub,2013-01-29 02:00:00,
2013-01-28 21:05:00,34.3,33.6,30.06,SW,228,3.0,7.0,97,0.02,,,0.07,meteohub,2013-01-29 02:05:00,
2013-01-28 21:10:00,34.3,33.6,30.06,WSW,238,0.0,6.0,97,0.01,,,0.07,meteohub,2013-01-29 02:10:00,
2013-01-28 21:15:00,34.3,33.6,30.06,SW,219,2.0,6.0,97,0.01,,,0.07,meteohub,2013-01-29 02:15:00,
2013-01-28 21:20:00,34.5,33.8,30.06,West,269,0.0,5.0,97,0.01,,,0.07,meteohub,2013-01-29 02:20:00,
2013-01-28 21:25:00,34.5,33.8,30.06,SSW,202,1.0,6.0,97,0.01,,,0.07,meteohub,2013-01-29 02:25:00,
2013-01-28 21:30:00,34.5,33.8,30.06,WSW,257,1.0,6.0,97,0.01,,,0.07,meteohub,2013-01-29 02:30:00,
2013-01-28 21:35:00,34.5,33.8,30.06,SW,225,0.0,6.0,97,0.00,,,0.07,meteohub,2013-01-29 02:35:00,
2013-01-28 21:40:00,34.5,33.8,30.06,WSW,238,1.0,7.0,97,0.00,,,0.07,meteohub,2013-01-29 02:40:00,
2013-01-28 21:45:00,34.5,33.8,30.05,WSW,239,3.0,7.0,97,0.00,,,0.08,meteohub,2013-01-29 02:45:00,
2013-01-28 21:50:00,34.5,33.8,30.05,WSW,246,2.0,7.0,97,0.01,,,0.08,meteohub,2013-01-29 02:50:00,
2013-01-28 21:55:00,34.5,33.8,30.06,WSW,249,0.0,5.0,97,0.01,,,0.08,meteohub,2013-01-29 02:55:00,
2013-01-28 22:00:00,34.3,33.6,30.06,West,267,1.0,6.0,97,0.01,,,0.08,meteohub,2013-01-29 03:00:00,
2013-01-28 22:05:00,34.3,33.6,30.05,WSW,255,1.0,6.0,97,0.01,,,0.08,meteohub,2013-01-29 03:05:00,
2013-01-28 22:10:00,34.2,33.4,30.05,WSW,249,1.0,6.0,97,0.01,,,0.08,meteohub,2013-01-29 03:10:00,
2013-01-28 22:15:00,34.2,33.4,30.06,WSW,240,1.0,6.0,97,0.01,,,0.08,meteohub,2013-01-29 03:15:00,
2013-01-28 22:20:00,34.2,33.4,30.06,WSW,257,0.0,6.0,97,0.01,,,0.08,meteohub,2013-01-29 03:20:00,
2013-01-28 22:25:00,34.2,33.4,30.05,SW,235,0.0,5.0,97,0.01,,,0.08,meteohub,2013-01-29 03:25:00,
2013-01-28 22:30:00,34.2,33.4,30.06,SW,226,1.0,5.0,97,0.01,,,0.08,meteohub,2013-01-29 03:30:00,
2013-01-28 22:35:00,34.2,33.4,30.05,SW,221,2.0,5.0,97,0.01,,,0.08,meteohub,2013-01-29 03:35:00,
2013-01-28 22:40:00,34.2,33.4,30.05,WSW,253,0.0,6.0,97,0.01,,,0.08,meteohub,2013-01-29 03:40:00,
2013-01-28 22:45:00,34.2,33.4,30.05,WSW,242,1.0,6.0,97,0.00,,,0.08,meteohub,2013-01-29 03:45:00,
2013-01-28 22:50:00,34.2,33.4,30.05,West,262,1.0,6.0,97,0.00,,,0.08,meteohub,2013-01-29 03:50:00,
2013-01-28 22:55:00,34.2,33.4,30.05,West,267,0.0,6.0,97,0.00,,,0.08,meteohub,2013-01-29 03:55:00,
2013-01-28 23:00:00,34.2,33.4,30.05,WSW,238,2.0,6.0,97,0.00,,,0.08,meteohub,2013-01-29 04:00:00,
2013-01-28 23:05:00,34.2,33.4,30.05,West,277,1.0,4.0,97,0.00,,,0.08,meteohub,2013-01-29 04:05:00,
2013-01-28 23:10:00,34.2,33.4,30.05,West,262,1.0,4.0,97,0.00,,,0.08,meteohub,2013-01-29 04:10:00,
2013-01-28 23:15:00,34.2,33.4,30.05,SW,226,1.0,4.0,97,0.00,,,0.08,meteohub,2013-01-29 04:15:00,
2013-01-28 23:20:00,34.2,33.4,30.05,West,259,2.0,4.0,97,0.00,,,0.08,meteohub,2013-01-29 04:20:00,
2013-01-28 23:25:00,34.2,33.4,30.05,SW,228,2.0,5.0,97,0.00,,,0.08,meteohub,2013-01-29 04:25:00,
2013-01-28 23:30:00,34.2,33.4,30.05,West,266,1.0,5.0,97,0.00,,,0.08,meteohub,2013-01-29 04:30:00,
2013-01-28 23:35:00,34.2,33.4,30.05,West,269,2.0,4.0,97,0.00,,,0.08,meteohub,2013-01-29 04:35:00,
2013-01-28 23:40:00,34.2,33.4,30.05,WSW,251,0.0,4.0,97,0.00,,,0.08,meteohub,2013-01-29 04:40:00,
2013-01-28 23:45:00,34.2,33.4,30.04,WSW,256,2.0,3.0,97,0.00,,,0.08,meteohub,2013-01-29 04:45:00,
2013-01-28 23:50:00,34.2,33.4,30.04,WSW,250,1.0,3.0,97,0.00,,,0.08,meteohub,2013-01-29 04:50:00,
2013-01-28 23:55:00,34.2,33.4,30.04,WSW,243,2.0,4.0,97,0.00,,,0.08,meteohub,2013-01-29 04:55:00,